Tracking 28052 objects as of 21-Sep-2023
HD Live streaming from Space Station
objects crossing your sky now

BREEZE-M R/B

Track BREEZE-M R/B now!


NORAD ID: 28656
Int'l Code: 2004-008C
Perigee: 4,218.7 km
Apogee: 36,740.5 km
Inclination: 13.1 °
Period: 729.8 minutes
Semi major axis: 26850 km
RCS: 6.2799 m2 (large)
Launch date: March 15, 2004
Source: Commonwealth of Independent States (former USSR) (CIS)
Launch site: TYURATAM MISSILE AND SPACE COMPLEX (TTMTR)

Note: This is a ROCKET BODY
Your satellite tracking list
Your tracking list is empty




NASA's NSSDC Master Catalog

Two Line Element Set (TLE):
1 28656U 04008C   23263.03082624  .00000089  00000-0  00000-0 0  9997
2 28656  13.0829  72.9952 6056056  80.3727 339.5200  1.97320505134496
Source of the keplerian elements: AFSPC